Weather History for KSEE - January, 2013

Change the Weather History Date:

Sunday, January 20, 2013

  Actual Average (KRNM) Record (KRNM)
Temperature  
Mean Temperature 58 °F 50 °F  
Max Temperature 80 °F 66 °F 81 °F (1975)
Min Temperature 35 °F 35 °F 24 °F (1996)
Degree Days  
Heating Degree Days 8 15  
Month to date heating degree days 300  
Since 1 July heating degree days 1188  
Cooling Degree Days 0 0  
Month to date cooling degree days 0  
Year to date cooling degree days 0  
Growing Degree Days 8 (Base 50)    
Moisture  
Dew Point 29 °F    
Average Humidity 55    
Maximum Humidity 75    
Minimum Humidity 14    
Precipitation  
Precipitation 0.00 in 0.12 in 1.67 in (2010)
Month to date precipitation 2.42  
Year to date precipitation 2.42  
Snow  
Snow 0.00 in - - ()
Month to date snowfall  
Year to date snowfall  
Since 1 July snowfall  
Snow Depth -    
Sea Level Pressure  
Sea Level Pressure 30.11 in    
Wind  
Wind Speed 1 mph (West)    
Max Wind Speed 12 mph    
Max Gust Speed -    
Visibility 10 miles    
Events      
T = Trace of Precipitation, MM = Missing Value Source: NWS Daily Summary

Daily Weather History Graph

Daily Weather History Graph

Search for Another Location

Airport or City:

Trip Planner

Search our weather history database for the weather conditions in past years. The results will help you decide how hot, cold, wet, or windy it might be!

Date:

Astronomy

Jan. 20, 2013 Rise Set
Actual Time 6:48 AM PST 5:09 PM PST
Civil Twilight 6:22 AM PST 5:35 PM PST
Nautical Twilight 5:52 AM PST 6:05 PM PST
Astronomical Twilight 5:22 AM PST 6:35 PM PST
Moon 12:12 PM PST (1/20) 1:27 AM PST (1/20)
Length of Visible Light 11h 13m
Length of Day
10h 20m
Waxing Gibbous, 67% of the Moon is Illuminated
Jan 20
Waxing Gibbous
Jan 26
Full
Feb 3
Last Quarter
Feb 9
New
Feb 17
First Quarter

Hourly Weather History & Observations

Time (PST) Temp. Windchill Dew Point Humidity Pressure Visibility Wind Dir Wind Speed Gust Speed Precip Events Conditions
12:15 AM 42.8 °F - 28.4 °F 57% 30.15 in 10.0 mi Calm Calm - N/A   Clear
12:35 AM 42.8 °F - 28.4 °F 57% 30.14 in 10.0 mi Calm Calm - N/A   Clear
12:55 AM 42.8 °F - 28.4 °F 57% 30.14 in 10.0 mi Calm Calm - N/A   Clear
1:15 AM 42.8 °F - 28.4 °F 57% 30.14 in 10.0 mi Calm Calm - N/A   Clear
1:35 AM 41.0 °F - 28.4 °F 61% 30.14 in 10.0 mi Calm Calm - N/A   Clear
1:55 AM 39.2 °F - 28.4 °F 65% 30.14 in 10.0 mi Calm Calm - N/A   Clear
2:15 AM 39.2 °F - 28.4 °F 65% 30.14 in 10.0 mi Calm Calm - N/A   Clear
2:35 AM 39.2 °F - 30.2 °F 70% 30.14 in 10.0 mi Calm Calm - N/A   Clear
2:55 AM 39.2 °F - 28.4 °F 65% 30.14 in 10.0 mi Calm Calm - N/A   Clear
3:15 AM 37.4 °F - 28.4 °F 70% 30.13 in 10.0 mi Calm Calm - N/A   Clear
3:35 AM 37.4 °F - 28.4 °F 70% 30.13 in 10.0 mi Calm Calm - N/A   Clear
3:55 AM 37.4 °F - 28.4 °F 70% 30.13 in 10.0 mi Calm Calm - N/A   Clear
4:15 AM 37.4 °F - 28.4 °F 70% 30.13 in 10.0 mi Calm Calm - N/A   Clear
4:35 AM 37.4 °F - 28.4 °F 70% 30.13 in 10.0 mi Calm Calm - N/A   Clear
4:55 AM 37.4 °F - 28.4 °F 70% 30.14 in 10.0 mi Calm Calm - N/A   Clear
5:15 AM 37.4 °F - 28.4 °F 70% 30.14 in 10.0 mi Calm Calm - N/A   Clear
6:47 AM 35.6 °F - 28.4 °F 75% 30.14 in 25.0 mi Calm Calm - N/A   Partly Cloudy
9:47 AM 59.0 °F - 30.2 °F 34% 30.14 in 25.0 mi Calm Calm - N/A   Partly Cloudy
10:47 AM 62.6 °F - 32.0 °F 32% 30.12 in 20.0 mi Calm Calm - N/A   Scattered Clouds
12:47 PM 78.8 °F - 26.6 °F 15% 30.03 in 25.0 mi Calm Calm - N/A   Scattered Clouds
2:47 PM 80.6 °F - 26.6 °F 14% 30.00 in 25.0 mi West 11.5 mph - N/A   Scattered Clouds
3:47 PM 75.2 °F - 28.4 °F 18% 30.00 in 25.0 mi West 10.4 mph - N/A   Partly Cloudy
8:15 PM 51.8 °F - 28.4 °F 41% 30.10 in 10.0 mi North - - N/A   Clear
8:35 PM 48.2 °F - 30.2 °F 50% 30.10 in 10.0 mi NW 3.5 mph - N/A   Clear
8:55 PM 48.2 °F - 30.2 °F 50% 30.10 in 10.0 mi Calm Calm - N/A   Clear
9:15 PM 48.2 °F - 30.2 °F 50% 30.10 in 10.0 mi West 3.5 mph - N/A   Clear
9:35 PM 46.4 °F - 30.2 °F 53% 30.11 in 10.0 mi Calm Calm - N/A   Clear
10:15 PM 44.6 °F 43.1 °F 28.4 °F 53% 30.11 in 10.0 mi WSW 3.5 mph - N/A   Clear
10:35 PM 44.6 °F - 28.4 °F 53% 30.11 in 10.0 mi Calm Calm - N/A   Clear
10:55 PM 42.8 °F 41.1 °F 28.4 °F 57% 30.11 in 10.0 mi NW 3.5 mph - N/A   Clear
11:15 PM 42.8 °F - 28.4 °F 57% 30.10 in 10.0 mi Calm Calm - N/A   Clear
11:35 PM 41.0 °F - 28.4 °F 61% 30.09 in 10.0 mi Calm Calm - N/A   Clear
11:55 PM 41.0 °F - 28.4 °F 61% 30.08 in 10.0 mi Calm Calm - N/A   Clear